This demonstration page uses our WeatherBlox Daily Observations layout. Learn more.

Left ArrowRight Arrow

41.55636, -103.73856

Hourly Observations for March 14, 2021

Temp ( °F °C ) Dew Point ( °F °C ) Humidity (%) Winds ( mph kmh ) Pressure ( in mb ) Visibility ( mi km ) Precip ( " mm )
12:58 am 00:58 Mostly Cloudy with Light Snow 32 0.1 31 -0.6 95 95 E 22 35 29.97 1015 0 0 0.02 0.51
1:58 am 01:58 Mostly Cloudy with Light Rain/Snow 32 -0.2 30 -0.9 95 95 ENE 28 44 29.90 1013 1 2 0.02 0.51
3:58 am 03:58 Cloudy with Snow Showers 31 -0.4 30 -1.1 95 95 ENE 18 30 29.92 1013 0 0 0.01 0.25
4:58 am 04:58 Mostly Cloudy with Heavy Snow 31 -0.7 29 -1.4 95 95 NE 16 26 29.92 1013 1 2 0.01 0.25
5:58 am 05:58 Mostly Cloudy with Heavy Snow 30 -1 29 -1.7 95 95 NE 22 35 29.88 1012 N/A 0.02 0.51
6:58 am 06:58 Mostly Cloudy with Heavy Snow 30 -1.2 29 -1.8 96 96 NE 24 39 29.87 1012 0 0 0.03 0.76
7:58 am 07:58 Mostly Cloudy with Heavy Snow 30 -1.3 28 -2 95 95 NE 22 35 29.88 1012 0 0 0.02 0.51
8:58 am 08:58 Mostly Cloudy with Heavy Snow 30 -1.3 28 -2 95 95 NE 20 31 29.88 1012 0 0 0.02 0.51
9:58 am 09:58 Cloudy with Heavy Snow 29 -1.5 28 -2.2 95 95 NE 25 41 29.88 1012 0 0 0.04 1.02
10:58 am 10:58 Mostly Cloudy with Heavy Snow 29 -1.7 28 -2.5 94 94 NE 23 37 29.87 1012 0 0 0.02 0.51
11:58 am 11:58 Cloudy with Heavy Snow 29 -1.8 27 -2.6 94 94 NE 25 41 29.88 1012 3 5 0.03 0.76
12:58 pm 12:58 Cloudy with Snow 28 -2 27 -2.8 94 94 NNE 25 41 29.90 1012 3 5 0.05 1.27
1:58 pm 13:58 Cloudy with Snow 28 -2.3 26 -3.1 94 94 NE 28 44 29.90 1012 0 0 0.02 0.51
2:58 pm 14:58 Windy with Snow Likely 28 -2.2 26 -3.1 94 94 NNE 23 37 29.90 1012 1 1 0.01 0.25
3:58 pm 15:58 Windy with Snow Likely 28 -2.4 26 -3.3 94 94 NNE 23 37 29.91 1013 5 8 0.01 0.25
4:58 pm 16:58 Windy with Snow Likely 27 -2.6 26 -3.5 94 94 NNE 23 37 29.93 1014 5 8 0.00 0.00
5:58 pm 17:58 Windy with Snow Likely 27 -2.9 25 -3.8 94 94 NE 24 39 29.94 1014 1 1 0.00 0.00
6:58 pm 18:58 Windy with Snow Likely 26 -3.2 25 -4 94 94 NE 20 31 29.98 1015 1 2 0.00 0.00
7:58 pm 19:58 Mostly Cloudy with Light Snow Showers 26 -3.3 24 -4.2 94 94 NE 15 24 29.99 1016 1 2 0.00 0.00
8:58 pm 20:58 Mostly Cloudy with Freezing Fog 25 -3.8 24 -4.7 94 94 NNE 14 22 30.01 1016 1 2 0.00 0.00
9:58 pm 21:58 Mostly Cloudy with Light Snow 25 -3.9 23 -4.9 93 93 NNE 15 24 30.02 1017 1 2 0.00 0.00
10:58 pm 22:58 Mostly Cloudy with Light Snow 24 -4.5 22 -5.5 93 93 NNE 12 19 30.03 1017 0 0 0.00 0.00
11:58 pm 23:58 Mostly Cloudy with Freezing Fog 24 -4.6 22 -5.7 92 92 NNE 10 17 30.01 1016 N/A 0.00 0.00

Powered by AerisWeather